CZ-3B R/B, 45864

Orbit data source: Space-Track

CZ-3B R/B, 45864 is space debris in HEO originally from a launch on Thu, 09 Jul 2020 UTC launched from the Xichang Space Center, China (XSC). Debris objects in space refer to the collection of defunct objects orbiting the Earth. Examples of debris include non-operational satellites, rocket bodies, and fragments generated from explosions, collisions, or faulty payload assembly.

Loading next visibility...
Identifier
45864, 2020-045B
Orbit
HEO
Country
Flag of CNCN / PRC
Related business
Manufacturer
CALT
Mission
Spacecraft
Bus & Motor
CZ-3A STAGE 3, Unknown motor
Mass
~2,800 kg wet, ~2,800 kg dry
Launch date (UTC)
2020-07-09 (5 years ago)
Launch vehicle
Unknown
Launch site
Xichang Space Center, China (XSC)
Object type
Payload
Rocket body
Debris
Shape & HBR
Cyl + 1 Nozzle, 6.2 m
Radar Cross Section
32.704 m², Large (>1 m²)

Expand to show TLE details & history
Last TLE update: 1 week ago

TLE from 1 week ago
0 CZ-3B R/B
1 45864U 20045B   25255.63872996  .00067163  63931-7  98268-3 0  9995
2 45864  28.4079  40.3845 5475655 246.4800  48.3419  4.96973150 62713
Epoch: 2025-09-12T15:19Z
TLE epoch observation values (Epoch: 2025-09-12T15:19:46.268Z)
Latitude
-0.00003°
Longitude
178.54447°
Altitude
6,620.52 km
Speed
5.818 km/s
True Right ascension
02h 41m 28s
True Declination
0° 00' 00"
Sunlit
Object was in daylight at epoch
Visualization orbit readout
Latitude
Unknown
Longitude
Unknown
Altitude
Unknown
Speed
Unknown
Apparent Right ascension
Unknown
Apparent Declination
Unknown
Sunlit
N/A
Visualization observer readout
Local Sidereal Time
23:49:03
Azimuth
Unknown
Elevation
Unknown
Doppler factor
Unknown
Orbital elements
Apogee altitude
16,074.38 km
Perigee altitude
185.91 km
Semi-major axis
14,508.282 km
Eccentricity
0.54757
Inclination
28.4079°
RAAN
40.3845°
Arg. of periapsis
246.48°
True anomaly
113.62137°
Mean anomaly
48.3419°
Eccentric anomaly
79.15473°
Mean motion
1.24199 °/min
Orbital period
289.86 mins
BSTAR
0.00098268
Loading maneuver chart data...
Computing Atmospheric mass density...
Loading historical data...
Loading historical data...
Loading historical data...
Loading historical data...
Loading historical data...
Loading historical data...
Loading historical data...
Other satellites on launch #45 in the year 2020 (2020-07-09 UTC)

Documentation

Showing up to 5 results
|